Home   Weather   Greven   Past weeks

Flag for Germany Past Weather in Greven, North Rhine-Westphalia, Germany — Yesterday and Last 2 Weeks

Now
28 °F

Clear.


Feels Like: 28 °F
Forecast: 19 / 33 °F
Wind: No wind

Location: Muenster / Osnabrueck

Current Time: Dec 5, 2016 at 5:58:29 pm

Latest Report: Dec 5, 2016 at 5:20 pm


Visibility: 10 mi

Pressure: 30.30 "Hg

Humidity: 80%

Dew Point: 23 °F

Location of GrevenLocation

Past Weather in Greven — Graph

°F

Greven Temperature Yesterday

Maximum temperature yesterday: 41 °F (at 1:50 pm)
Minimum temperature yesterday: 21 °F (at 4:20 am)
Average temperature yesterday: 29 °F

High & Low Weather Summary for the Past Weeks

 TemperatureHumidityPressure
High57 °F (Nov 20, 4:20 pm)100% (Nov 23, 4:50 am)30.60 "Hg (Nov 23, 4:50 am)
Low18 °F (Nov 29, 7:20 am)42% (Dec 5, 2:50 pm)29.36 "Hg (Nov 20, 4:20 pm)
Average37 °F86%30.17 "Hg
* Reported Nov 20 4:20 pm — Dec 5 4:20 pm, Greven, Weather by CustomWeather, © 2016

Note: Actual official high and low records may vary slightly from our data, if they occured in-between our weather recording intervals... More about our weather records

Advertising

Greven Weather History for the Previous 24 Hours

Scroll right to see more
 ConditionsComfort  
Time TempWeatherWind HumidityBarometerVisibility
4:20 pm
Mon, Dec 5
34 °FClear.No wind65%30.30 "Hg10 mi
3:50 pm39 °FSunny.No wind56%30.30 "Hg10 mi
3:20 pm41 °FSunny.No wind45%30.30 "Hg10 mi
2:50 pm41 °FSunny.No wind42%30.30 "Hg10 mi
2:20 pm41 °FSunny.No wind45%30.30 "Hg10 mi
1:50 pm39 °FSunny.1 mph48%30.30 "Hg10 mi
1:20 pm39 °FSunny.1 mph45%30.30 "Hg10 mi
12:50 pm39 °FSunny.No wind45%30.30 "Hg10 mi
12:20 pm37 °FSunny.1 mph52%30.30 "Hg10 mi
11:50 am36 °FSunny.2 mph52%30.33 "Hg10 mi
11:20 am36 °FSunny.2 mph52%30.33 "Hg10 mi
10:50 am32 °FSunny.No wind60%30.33 "Hg10 mi
10:20 am28 °FSunny.No wind69%30.33 "Hg10 mi
9:50 am25 °FSunny.No wind74%30.33 "Hg10 mi
9:20 am23 °FSunny.No wind74%30.33 "Hg10 mi
8:50 am19 °FSunny.1 mph86%30.30 "Hg10 mi
8:20 am19 °FClear.No wind86%30.30 "Hg10 mi
7:50 am21 °FClear.No wind86%30.30 "Hg10 mi
7:20 am23 °FClear.2 mph80%30.30 "Hg10 mi
6:50 am19 °FClear.1 mph86%30.30 "Hg10 mi
6:20 am23 °FClear.No wind80%30.30 "Hg10 mi
5:50 am21 °FClear.2 mph80%30.30 "Hg10 mi
5:20 am23 °FClear.1 mph74%30.30 "Hg10 mi
4:50 am23 °FClear.1 mph74%30.33 "Hg10 mi
4:20 am27 °FClear.2 mph64%30.33 "Hg10 mi
3:50 am25 °FClear.2 mph69%30.33 "Hg10 mi
3:20 am27 °FClear.2 mph64%30.33 "Hg10 mi
2:50 am25 °FClear.1 mph69%30.33 "Hg10 mi
2:20 am25 °FClear.2 mph74%30.33 "Hg10 mi
1:50 am25 °FClear.2 mph74%30.33 "Hg10 mi
1:20 am25 °FClear.1 mph74%30.33 "Hg10 mi
12:50 am25 °FClear.2 mph74%30.33 "Hg10 mi
12:20 am23 °FClear.2 mph86%30.36 "Hg10 mi
11:50 pm
Sun, Dec 4
25 °FClear.1 mph80%30.36 "Hg10 mi
11:20 pm27 °FClear.1 mph74%30.36 "Hg10 mi
10:50 pm28 °FClear.3 mph69%30.36 "Hg10 mi
10:20 pm28 °FClear.2 mph69%30.36 "Hg10 mi
9:50 pm30 °FClear.2 mph64%30.36 "Hg10 mi
9:20 pm32 °FPassing clouds.5 mph60%30.36 "HgN/A
8:50 pm32 °FClear.2 mph60%30.36 "Hg10 mi
8:20 pm32 °FPassing clouds.3 mph60%30.36 "HgN/A
7:50 pm28 °FPassing clouds.3 mph74%30.36 "HgN/A
7:20 pm28 °FClear.2 mph80%30.36 "Hg10 mi
6:50 pm28 °FPassing clouds.3 mph80%30.36 "HgN/A
6:20 pm30 °FPassing clouds.5 mph80%30.36 "HgN/A
5:50 pm28 °FClear.2 mph80%30.36 "Hg10 mi
5:20 pm30 °FClear.3 mph75%30.36 "Hg10 mi
Weather by CustomWeather, © 2016

See weather overviewHow to use our weather pages